RH
55 55 55 55 55 54 53 52 50 48 46 42 38 35 30 26 19 16 26 24 22 20 24 22 17 15 13 12 9 8 10 10 7 6 7 9 10 10 8 13 19 27 38 51 66
58 58 58 56 55 56 54 52 48 48 48 46 42 37 32 28 20 26 27 24 24 26 23 27 22 18 15 10 9 8 11 9 6 7 9 8 8 10 10 14 20 25 53 67 73
55 55 55 54 53 52 52 52 50 50 51 49 46 39 34 29 32 30 27 25 27 27 26 28 23 19 15 12 8 9 11 8 7 7 9 9 9 8 9 11 14 19 44 66 69
51 51 51 50 49 48 47 47 51 58 58 54 51 44 36 34 27 32 32 26 25 25 23 25 23 20 16 14 11 10 9 10 10 8 8 9 9 8 8 8 10 13 23 47 64
44 48 48 47 46 45 44 46 50 61 64 64 61 53 42 49 42 35 35 39 27 32 30 27 25 21 18 14 12 13 11 11 11 9 8 9 9 9 9 9 10 12 23 56 58
36 39 41 42 41 41 43 50 62 70 70 66 78 73 89 72 34 40 44 45 40 33 32 32 31 28 23 21 17 15 13 12 12 11 10 9 9 9 9 9 9 10 25 46 50
35 36 39 42 46 49 56 63 72 74 73 74 84 96 99 76 38 49 52 52 49 49 43 40 40 34 24 24 21 19 19 15 14 12 11 10 10 10 8 8 8 10 12 24 41
42 44 47 55 63 69 78 83 84 82 77 74 76 100 98 49 43 57 55 52 53 53 50 50 48 41 33 27 25 24 21 24 15 11 10 10 15 9 8 8 8 9 12 16 25
53 53 59 61 75 88 92 92 97 96 99 98 89 94 79 57 63 57 58 54 49 48 48 47 44 40 33 33 34 29 34 25 18 11 11 10 14 9 8 8 8 8 11 14 22
65 67 78 84 87 100 99 100 92 100 100 92 90 81 66 54 44 50 42 43 48 39 40 36 37 34 32 35 43 30 25 21 20 14 12 12 13 11 9 8 9 11 12 14 17
76 74 92 99 99 100 100 100 100 96 95 65 59 57 45 44 44 42 39 40 34 30 34 32 35 39 33 29 27 26 26 26 21 16 17 17 15 12 11 11 10 11 12 13 13
82 86 97 92 90 100 100 100 92 78 67 68 62 59 55 48 45 41 35 33 33 37 30 34 40 29 25 25 26 25 27 27 22 18 19 18 18 16 14 14 13 12 11 13 13
90 85 90 98 99 100 98 98 93 76 71 55 51 52 51 48 46 44 38 33 30 32 31 34 28 23 24 27 28 26 29 30 29 23 20 22 24 20 16 15 14 14 13 11 13
98 96 100 99 100 97 98 99 92 81 96 66 47 44 44 45 43 42 40 36 33 35 31 29 23 24 25 28 27 34 26 29 27 29 35 22 36 24 19 16 14 13 14 13 12
98 99 100 94 98 99 88 100 93 85 100 35 38 41 40 44 35 37 37 38 40 36 31 35 29 29 31 30 26 32 26 30 29 32 33 30 33 27 18 17 17 19 21 23 23
98 97 100 100 100 89 88 99 89 98 95 41 37 39 42 44 36 34 38 41 36 36 34 33 27 26 26 23 23 23 27 28 28 31 49 33 31 29 21 21 19 20 23 30 32
100 100 100 100 94 98 92 90 99 100 31 35 38 34 38 42 40 33 37 44 43 55 51 38 37 30 24 29 27 25 32 48 56 58 57 26 29 23 30 23 22 26 29 32 35
100 100 99 98 85 90 86 95 100 51 35 20 26 30 38 31 36 34 34 42 36 33 35 38 41 31 28 30 33 31 33 48 56 63 46 33 39 28 32 25 28 27 27 28 30
100 100 100 97 99 89 85 100 76 42 30 35 24 34 36 28 30 36 37 34 30 31 42 36 33 24 25 24 28 38 41 33 54 53 74 44 27 20 45 48 31 28 25 20 20
100 100 100 98 100 90 95 92 52 27 23 27 37 27 32 28 34 32 35 27 30 31 28 35 45 27 26 24 24 31 28 51 57 75 64 37 31 31 45 36 31 30 20 16 20
99 99 99 100 100 100 100 84 40 27 25 26 27 26 23 24 27 28 27 28 28 31 29 33 38 30 28 34 30 29 36 41 43 59 67 54 40 48 48 37 32 24 18 14 24
100 100 100 92 99 100 98 74 39 37 33 28 30 29 23 21 23 25 26 40 33 28 35 32 40 42 36 25 27 32 43 44 86 61 63 61 54 28 29 22 17 16 14 13 24
99 99 100 99 98 99 88 68 50 39 39 34 30 26 20 23 30 24 41 45 37 30 40 34 42 48 37 26 25 31 31 37 35 48 54 68 60 24 22 20 16 16 15 15 18
94 100 100 100 99 97 100 88 67 46 34 30 28 24 28 31 24 27 40 40 36 37 36 36 38 43 47 28 35 39 36 36 47 67 51 46 33 26 23 21 18 16 15 16 20
90 92 88 100 99 99 95 95 64 62 57 40 45 47 32 39 32 31 35 56 38 46 38 40 67 59 46 37 35 34 30 27 32 34 53 47 33 22 20 20 19 18 16 17 19
75 80 68 65 94 98 99 99 86 57 62 56 57 47 37 44 41 60 36 43 47 43 42 42 70 81 69 51 44 44 32 25 23 22 26 26 28 20 19 18 19 19 18 18 20
70 60 58 63 61 84 92 86 91 65 66 56 56 50 52 48 39 35 40 49 41 56 53 46 61 59 63 40 43 58 40 33 28 24 28 38 31 24 24 23 22 20 18 20 34
Wind_Speed
24 22 21 19 18 17 15 15 14 14 15 16 17 18 19 21 20 16 14 11 13 12 9 16 12 8 12 12 13 12 8 13 18 14 14 11 6 10 15 14 3 3 10 7 24
25 24 22 21 19 18 17 16 15 14 15 16 17 18 19 21 23 20 17 16 17 9 8 12 13 13 12 15 11 9 9 17 18 11 13 18 6 10 13 13 10 12 13 16 21
26 25 24 22 20 19 18 17 16 15 16 17 17 18 17 18 20 3 3 10 11 6 10 12 13 14 16 14 15 16 14 17 23 18 14 14 19 15 13 13 18 15 19 18 20
29 27 25 24 22 20 19 18 16 15 16 17 18 19 16 13 6 3 13 9 10 12 13 12 10 13 13 12 17 13 19 17 22 23 22 11 19 21 19 20 19 20 23 26 27
31 29 27 25 23 21 19 18 17 17 17 17 17 19 18 9 22 18 17 18 17 10 9 9 11 15 12 13 12 14 17 24 25 26 23 21 21 20 23 21 19 17 9 25 26
32 30 28 27 24 22 20 18 17 17 17 17 18 19 12 17 14 9 14 11 7 8 10 10 13 15 16 17 17 19 26 24 23 24 24 21 23 22 24 24 25 22 18 22 23
32 31 29 27 25 22 20 18 18 19 18 17 15 15 18 26 15 12 14 14 11 10 12 11 12 12 14 17 15 16 19 18 22 23 22 26 24 22 26 27 27 25 23 21 25
33 31 29 27 25 21 19 19 19 19 18 17 17 17 17 25 23 22 20 21 21 22 19 16 14 15 18 18 24 19 20 19 18 21 26 24 21 17 22 26 27 24 21 19 18
33 31 29 26 24 21 20 20 18 19 19 18 12 10 17 9 15 16 18 22 18 18 18 14 13 18 15 13 12 10 15 20 21 17 17 11 17 15 22 16 19 24 23 21 22
34 32 30 27 25 23 21 20 19 20 22 17 13 7 18 18 6 6 5 7 13 9 10 12 11 10 11 13 15 14 16 19 18 15 15 17 16 13 22 20 18 18 17 23 25
37 32 31 28 28 26 24 19 12 8 16 18 10 10 9 5 3 9 9 6 9 10 11 17 10 15 18 18 20 17 21 23 21 20 20 16 17 16 17 22 24 21 22 22 24
41 38 37 34 31 28 23 26 15 4 8 24 27 25 26 16 7 8 10 9 13 14 15 12 16 16 18 20 20 20 18 17 19 19 18 19 21 17 15 20 24 27 21 27 25
45 42 39 34 36 29 27 32 21 14 5 18 25 28 29 26 24 23 16 16 16 14 15 19 13 18 13 17 19 16 15 19 21 21 22 19 23 20 24 30 35 35 30 22 24
44 43 41 36 32 30 30 28 21 9 2 7 16 24 28 21 17 22 25 22 17 18 18 17 19 19 17 15 13 18 15 17 19 17 14 13 18 16 18 18 19 22 25 20 16
45 44 43 35 36 37 32 27 18 11 4 10 15 7 14 21 10 10 13 23 18 17 13 16 13 14 15 16 17 21 19 16 12 15 18 15 12 12 14 9 14 19 34 33 25
44 44 39 40 32 31 27 22 16 4 8 8 10 12 16 24 12 10 9 10 8 18 20 22 23 16 13 8 10 10 12 12 14 13 13 14 14 15 6 9 12 16 23 27 27
44 42 39 34 34 28 31 24 3 5 7 12 11 15 18 12 15 12 12 11 10 6 15 19 25 24 20 15 11 9 8 5 4 4 10 14 11 11 9 14 13 14 20 22 23
41 43 44 27 31 35 36 4 6 12 14 3 12 16 16 14 12 16 12 12 16 14 8 8 15 25 21 25 16 15 15 7 6 6 11 15 7 1 7 17 17 15 15 14 13
47 48 37 33 33 38 25 5 11 14 15 8 6 12 17 15 8 15 16 15 15 16 7 5 12 8 1 6 16 17 14 13 14 11 4 8 14 14 16 11 10 10 12 15 12
41 24 29 37 34 39 9 8 13 14 6 18 21 16 16 19 12 13 15 14 12 2 5 3 5 3 6 1 5 12 3 7 4 4 9 13 15 6 12 6 7 4 7 15 9
36 16 22 28 32 18 6 10 14 4 3 4 16 17 19 15 19 17 12 10 10 10 9 9 8 5 8 6 9 7 12 6 5 5 3 7 6 12 11 8 8 2 12 18 4
14 3 22 27 4 3 8 9 17 6 5 5 5 11 13 17 17 16 18 10 10 7 10 1 4 11 13 6 2 2 7 7 4 9 7 8 16 14 4 3 13 15 20 21 5
12 5 10 28 6 5 5 16 17 13 11 8 9 11 12 15 9 14 15 10 6 6 4 2 4 7 10 11 10 9 6 12 13 13 18 11 10 9 17 16 18 19 19 23 19
6 3 3 3 3 4 4 9 11 14 12 12 9 12 8 8 8 3 12 8 8 8 10 5 7 7 9 7 3 7 11 12 11 8 11 13 18 19 18 18 19 22 21 23 17
4 2 7 3 1 1 9 5 15 8 3 6 5 11 13 9 13 11 6 1 7 10 5 1 4 6 11 13 13 15 18 20 19 18 16 18 20 22 19 17 20 25 26 23 18
8 3 3 7 14 6 4 6 12 12 10 12 9 12 8 8 7 3 13 12 6 11 9 9 4 3 6 10 12 17 23 23 22 22 21 21 22 19 27 31 28 27 30 19 15
6 3 3 2 8 8 6 6 5 9 4 8 8 5 12 4 9 4 10 6 8 11 13 10 6 7 15 11 10 14 19 22 21 20 19 18 20 20 20 20 24 27 22 21 4
Wind_Direction
235 239 240 245 250 255 261 267 276 286 295 302 308 313 317 318 316 313 298 268 278 301 355 350 337 302 297 264 260 269 264 267 270 304 340 70 10 308 282 283 127 82 42 114 161
234 237 241 243 248 254 261 267 274 284 292 298 305 309 316 321 317 302 272 264 267 283 320 339 330 322 303 274 253 230 261 261 287 349 323 326 329 298 288 272 202 169 101 131 155
236 239 242 247 248 253 259 266 274 282 288 294 301 305 314 325 323 70 312 269 253 285 326 314 307 302 291 282 265 255 256 277 291 316 319 310 305 285 269 249 251 215 166 159 173
238 239 241 244 248 251 256 264 273 280 284 293 300 302 308 318 300 355 316 301 264 293 312 304 303 303 295 293 285 266 271 287 293 293 292 264 272 270 257 255 259 247 218 191 180
236 238 240 243 246 250 255 261 267 274 282 291 299 300 308 270 256 301 297 291 284 292 283 290 293 300 281 277 283 272 270 261 266 269 265 273 269 270 274 272 273 261 212 175 182
234 234 238 241 244 247 250 256 261 267 275 285 296 299 307 268 271 269 279 278 276 262 271 272 288 295 301 278 273 288 292 289 288 282 283 271 267 266 260 264 264 253 192 181 194
233 232 234 236 238 239 243 248 254 261 270 281 294 306 281 254 263 253 266 275 255 260 266 265 282 289 289 302 273 306 292 279 266 263 260 260 259 252 262 262 255 242 245 206 190
231 232 232 233 234 233 235 241 250 262 271 280 294 295 270 283 282 260 261 263 255 260 256 265 268 277 271 277 287 285 274 271 268 260 253 237 261 267 272 243 236 241 228 229 212
228 227 228 230 232 230 233 241 250 264 270 278 293 292 279 302 256 266 255 250 255 249 248 250 252 251 259 262 270 243 261 272 280 278 260 216 267 280 263 257 298 216 221 231 213
225 224 223 224 222 227 233 243 252 258 256 274 272 277 257 254 266 234 237 244 224 224 225 226 221 239 218 237 246 259 253 255 263 261 265 240 252 256 264 261 255 282 201 226 224
221 219 221 219 221 223 227 234 233 230 216 221 214 224 267 209 258 244 223 201 198 209 218 196 212 232 237 235 246 263 273 281 288 299 309 297 287 285 285 284 284 216 225 247 255
220 212 216 218 218 221 222 223 218 173 233 235 241 237 253 268 265 246 197 221 204 228 223 241 231 248 255 253 261 265 275 283 290 282 278 280 279 288 288 276 271 270 239 214 233
220 220 220 221 223 221 231 226 219 218 274 257 240 233 235 241 250 251 232 227 251 234 240 242 251 227 245 253 263 261 272 279 281 290 291 298 286 279 264 254 248 248 248 240 211
216 219 214 216 219 220 222 224 209 158 275 260 222 237 218 221 249 240 230 231 238 251 260 256 262 260 269 259 262 260 279 283 291 298 284 301 294 294 299 290 274 305 216 231 239
214 214 216 211 212 196 207 209 197 152 240 183 168 154 186 184 138 185 207 224 241 246 244 256 245 257 263 265 272 275 276 281 295 289 293 277 271 286 286 309 39 37 32 34 28
207 215 217 210 207 210 191 176 144 97 238 159 142 186 166 198 215 142 173 204 239 243 255 263 268 270 282 271 306 306 289 266 270 266 264 275 264 284 280 41 51 40 38 36 24
208 211 210 179 169 170 165 146 123 185 193 165 171 173 194 185 204 206 177 180 183 181 232 245 245 251 242 231 240 238 268 262 264 229 248 267 280 283 81 56 62 55 44 39 30
202 186 175 153 168 163 154 118 204 206 204 39 174 175 204 176 205 198 217 207 216 236 268 259 248 223 225 235 233 223 227 225 255 266 289 307 252 344 147 93 76 76 57 42 37
171 166 171 173 184 174 157 190 199 224 207 176 175 191 211 211 203 195 213 219 221 209 229 237 252 118 243 309 224 229 248 252 259 293 303 251 275 293 79 49 33 47 12 355 12
166 166 165 162 171 168 175 208 221 229 299 197 202 210 212 206 191 198 190 209 199 262 231 260 263 220 135 20 256 234 337 221 217 228 240 252 249 245 56 59 36 16 12 339 5
170 161 177 163 165 190 186 209 227 200 228 260 209 218 230 207 203 216 214 157 188 187 229 232 227 212 159 187 240 206 222 220 236 222 243 265 252 123 75 352 311 290 335 332 34
163 96 174 177 164 75 194 201 218 176 204 252 301 283 236 238 217 217 219 146 177 162 202 76 303 231 219 181 76 178 200 239 233 227 225 261 262 302 42 310 326 331 338 330 20
131 89 149 169 181 195 220 220 234 205 209 211 222 250 243 239 221 225 109 149 169 204 37 148 236 242 249 264 207 222 256 321 263 240 254 262 268 307 315 309 324 324 325 320 334
110 119 87 107 105 136 156 198 187 227 233 200 221 254 251 240 230 205 123 151 162 94 74 3 262 268 260 265 30 296 291 284 285 289 286 264 285 293 299 308 309 317 322 313 321
139 192 159 154 212 201 161 189 187 173 256 223 218 243 219 219 233 221 194 141 183 126 137 241 276 301 278 287 304 292 276 266 259 265 257 271 273 276 291 302 310 314 305 297 300
143 168 146 160 147 185 182 185 207 194 179 201 192 210 230 237 256 289 254 179 181 155 200 212 223 201 266 263 263 263 268 272 273 275 280 282 285 293 299 299 294 287 279 289 309
151 170 207 173 176 178 170 159 163 173 295 172 202 243 232 277 235 89 42 164 242 199 215 200 206 237 262 253 247 254 253 258 269 270 267 264 265 269 263 262 267 270 288 291 358